This is the latest recevied weather packets stored in our database for station/object KB3KBR-WX. If no packets are shown the sender has not sent any weather packets the latest 10 day(s).
| Time | Temp. | Humidity | Pressure | Rain* | Wind** | Luminosity | Snow |
|---|---|---|---|---|---|---|---|
| 1787824948 | 16.67° C | 95% | 1011 hPa | 0.76 mm | - | - | - |
| 1787824648 | 16.67° C | 95% | 1011.1 hPa | 1.78 mm | - | - | - |
| 1787824353 | 16.67° C | 95% | 1011.3 hPa | 5.08 mm | - | - | - |
| 1787824318 | 16.67° C | 95% | 1011.3 hPa | 5.08 mm | - | - | - |
| 1787824018 | 16.67° C | 95% | 1011.5 hPa | 5.33 mm | - | - | - |
| 1787823718 | 16.67° C | 95% | 1011.5 hPa | 5.08 mm | - | - | - |
| 1787823388 | 16.67° C | 95% | 1011.4 hPa | 5.08 mm | - | - | - |
| 1787823088 | 16.67° C | 95% | 1011.4 hPa | 5.08 mm | - | - | - |
| 1787822758 | 16.67° C | 95% | 1011.4 hPa | 5.08 mm | - | - | - |
| 1787822428 | 16.67° C | 95% | 1011.3 hPa | 5.08 mm | - | - | - |
| 1787822128 | 16.67° C | 95% | 1011.2 hPa | 5.33 mm | - | - | - |
| 1787821828 | 16.67° C | 95% | 1011.2 hPa | 5.59 mm | - | - | - |
| 1787821528 | 16.67° C | 95% | 1011.2 hPa | 6.1 mm | - | - | - |
| 1787821199 | 16.67° C | 95% | 1011.1 hPa | 6.86 mm | - | - | - |
| 1787820899 | 16.67° C | 95% | 1011.4 hPa | 3.05 mm | - | - | - |
| 1787820568 | 16.11° C | 95% | 1011.5 hPa | 2.29 mm | - | - | - |
| 1787820269 | 16.11° C | 95% | 1011.6 hPa | 2.29 mm | - | - | - |
| 1787819938 | 16.11° C | 95% | 1011.6 hPa | 2.29 mm | - | - | - |
| 1787819609 | 16.11° C | 95% | 1011.6 hPa | 2.29 mm | - | - | - |
| 1787819278 | 16.11° C | 95% | 1011.3 hPa | 2.29 mm | - | - | - |
| 1787818948 | 16.11° C | 95% | 1011.5 hPa | 2.29 mm | - | - | - |
| 1787818648 | 16.11° C | 95% | 1011.5 hPa | 2.03 mm | - | - | - |
| 1787818318 | 16.11° C | 95% | 1011.9 hPa | 2.03 mm | - | - | - |
| 1787817988 | 15.56° C | 95% | 1011.9 hPa | 1.27 mm | - | - | - |
| 1787817688 | 15.56° C | 95% | 1011.9 hPa | 1.02 mm | - | - | - |
* Rain latest hour (hover to see other rain measurements)
** Current wind speed in m/s (hover to see current wind gust speed)